Find Starlink 3826

NORAD ID: 52347 Int'l Des: 2022-045 Owner: SPXS Country: US Constellation: starlink operational
LEOCIRCULAR

当前视图

正在加载3D地球...

About Starlink 3826

Starlink 3826 (NORAD 52347) is a starlink constellation satellite (v1.5) launched Apr 29, 2022 by SPXS of US. It operates in LEO, CIRCULAR orbit with a mass of 297.00 kg.

即将过境

Passes for default location (London). Set your location on the main map for personalized predictions.

高度历史

Loading altitude history...

两行轨道根数

1 52347U 22045S 26209.17866796 -.00002714 00000-0 -71195-4 0 9996
2 52347 53.1633 283.5294 0001070 246.2955 113.7935 15.33562451237059
Epoch: Jul 28, 2026 • Age: 15 hours

当前状态

高度 472.2 km
远地点 / 近地点 N/A
速度 7.64 km/s
星下点 52.29°N, 157.83°E
发射日期 Apr 29, 2022
运行时间 4.2 years
类型 internet

技术详情

分类 Payload
质量 297.00 kg
干质量 275.00 kg
总质量 297.00 kg
长度 0.20 m
直径 2.80 m
跨度 9.00 m
形状 Box + pan
制造商 SPXS
平台类型 Starlink
阶段状态 In Orbit
所有者/国家 SPXS/US

Most Searched